User: anonymous   Login
Location: Unspecified
(0.0000°N, 0.0000°E)
Time: 20:58:35
(UTC+00:00)
Language:

Vela 1A - Orbit

View from above orbital plane
View from above orbital plane
View from above satellite
View from above satellite

Ground track
Ground track

The orbit data is extracted from the following two-line orbital elements,

1 00692U 63039C   15030.05174833 -.00001750  00000-0  00000+0 0   262
2 00692 033.7978 006.0921 5670793 150.7314 358.5918 00.21971440 41396
Epoch (UTC): 30 January 2015 01:14:31
Eccentricity: 0.5670793
inclination: 33.7978°
perigee height: 43844 km
apogee height: 175417 km
right ascension of ascending node: 6.0921°
argument of perigee: 150.7314°
revolutions per day: 0.21971440
mean anomaly at epoch: 358.5918°
orbit number at epoch: 4139

The dashed part of the orbit path shows where the satellite is in the earth's shadow,  

DLR